(°C)
10°
10°
10°
10°
10°
10°
10°
(°C)
10°
10°
10°
10°
10°
10°
10°
CСИ
ИСИ
ИСИ
ИСИ
СИ
СИ
СИ
(km/h)
1-4
1-4
1-5
2-6
2-8
3-9
4-10
(mm)
0
0
0
0
0
0
0
(%)
3
4
5
4
4
4
3

Издигане на слънцето

/ -76.8°
sun-icon
UV 2
07:12
17:16
(3°)
07:36
17:37

METAR за Южна Каролина (KCUB)

Час Условия Температура/
Точка на оросяване
Вятър Видимост Времето Облаци Налягане Промяна Сурови
MVFR 11.1°C / 8.9°C variable 0kt 4800m Mist Vertical Visibility of 0ft. 1020 - KCUB 050353Z AUTO 00000KT 3SM BR CLR 11/09 A3014 RMK AO2 SLP205 T01110089
MVFR 11.7°C / 10°C variable 0kt 6400m Mist Vertical Visibility of 0ft. 1020 - KCUB 050253Z AUTO 00000KT 4SM BR CLR 12/10 A3014 RMK AO2 SLP205 T01170100 51016
MVFR 12.8°C / 10.6°C variable 0kt 8000m Mist Vertical Visibility of 0ft. 1020 - KCUB 050153Z AUTO 00000KT 5SM BR CLR 13/11 A3013 RMK AO2 SLP202 T01280106
MVFR 13.9°C / 10.6°C variable 0kt 6400m Haze Vertical Visibility of 0ft. 1019 - KCUB 050053Z AUTO 00000KT 4SM HZ CLR 14/11 A3011 RMK AO2 SLP197 T01390106
MVFR 14.4°C / 11.1°C variable 0kt 6400m Haze Vertical Visibility of 0ft. 1019 - KCUB 042353Z AUTO 00000KT 4SM HZ CLR 14/11 A3009 RMK AO2 SLP190 T01440111 10222 20144 51012
VFR 16.1°C / 11.1°C variable 0kt >10km - Clear 1018 - KCUB 042253Z AUTO 00000KT 8SM CLR 16/11 A3008 RMK AO2 SLP185 T01610111
VFR 21.1°C / 11.1°C variable 0kt >10km - Clear 1018 - KCUB 042153Z AUTO 00000KT 9SM CLR 21/11 A3007 RMK AO2 SLP181 T02110111
VFR 21.7°C / 11.1°C variable 0kt >10km - Clear 1017 - KCUB 042053Z AUTO 00000KT 10SM CLR 22/11 A3006 RMK AO2 SLP176 T02170111 55005
VFR 21.7°C / 10.6°C 190º 3kt >10km - Clear 1017 - KCUB 041953Z AUTO 19003KT 10SM CLR 22/11 A3005 RMK AO2 SLP175 T02170106
VFR 21.7°C / 10°C 140º 3kt >10km - Clear 1017 - KCUB 041853Z AUTO 14003KT 10SM CLR 22/10 A3006 RMK AO2 SLP176 T02170100
VFR 21.1°C / 10°C variable 0kt >10km - Clear 1018 - KCUB 041753Z AUTO 00000KT 9SM CLR 21/10 A3007 RMK AO2 SLP182 T02110100 10211 20072 58011
VFR 17.8°C / 9.4°C 250º 3kt >10km - Clear 1018 - KCUB 041653Z AUTO 25003KT 8SM CLR 18/09 A3009 RMK AO2 SLP189 T01780094
VFR 16.7°C / 9.4°C variable 0kt >10km - Clear 1019 - KCUB 041553Z AUTO 00000KT 9SM CLR 17/09 A3010 RMK AO2 SLP193 T01670094
VFR 14.4°C / 8.3°C 240º 3kt >10km - Clear 1019 - KCUB 041453Z AUTO 24003KT 9SM CLR 14/08 A3010 RMK AO2 SLP193 T01440083 52016
VFR 12.8°C / 8.3°C variable 0kt >10km - Clear 1018 - KCUB 041353Z AUTO 00000KT 9SM CLR 13/08 A3009 RMK AO2 SLP187 T01280083
VFR 8.3°C / 6.7°C variable 0kt >10km - Clear 1018 - KCUB 041253Z AUTO 00000KT 7SM CLR 08/07 A3007 RMK AO2 SLP184 T00830067
VFR 7.2°C / 5.6°C variable 0kt >10km - Clear 1017 - KCUB 041153Z AUTO 00000KT 9SM CLR 07/06 A3006 RMK AO2 SLP177 T00720056 10111 20072 53005
VFR 7.8°C / 5.6°C variable 0kt >10km - Clear 1017 - KCUB 041053Z AUTO 00000KT 9SM CLR 08/06 A3005 RMK AO2 SLP173 T00780056
VFR 8.3°C / 6.1°C variable 0kt >10km - Clear 1017 - KCUB 040953Z AUTO 00000KT 10SM CLR 08/06 A3004 RMK AO2 SLP170 T00830061
VFR 8.3°C / 6.1°C variable 0kt >10km - Clear 1017 - KCUB 040853Z AUTO 00000KT 10SM CLR 08/06 A3004 RMK AO2 SLP172 T00830061 53001
VFR 9.4°C / 6.7°C variable 0kt >10km - Clear 1017 - KCUB 040753Z AUTO 00000KT 10SM CLR 09/07 A3004 RMK AO2 SLP172 T00940067
VFR 10.6°C / 7.2°C variable 0kt >10km - Clear 1017 - KCUB 040653Z AUTO 00000KT 10SM CLR 11/07 A3004 RMK AO2 SLP170 T01060072
VFR 11.1°C / 7.8°C variable 0kt >10km - Clear 1017 - KCUB 040553Z AUTO 00000KT 10SM CLR 11/08 A3004 RMK AO2 SLP170 T01110078 10161 20111 58004
VFR 11.7°C / 7.8°C variable 0kt >10km - Clear 1017 - KCUB 040453Z AUTO 00000KT 10SM CLR 12/08 A3005 RMK AO2 SLP174 T01170078 402720067

MVFR

11.1°C / 8.9°C

[Още]
Вятър variable 0kt
Видимост 4800m
Времето Mist
Облаци Vertical Visibility of 0ft.
Налягане 1020
Промяна -
Сурови KCUB 050353Z AUTO 00000KT 3SM BR CLR 11/09 A3014 RMK AO2 SLP205 T01110089

MVFR

11.7°C / 10°C

[Още]
Вятър variable 0kt
Видимост 6400m
Времето Mist
Облаци Vertical Visibility of 0ft.
Налягане 1020
Промяна -
Сурови KCUB 050253Z AUTO 00000KT 4SM BR CLR 12/10 A3014 RMK AO2 SLP205 T01170100 51016

MVFR

12.8°C / 10.6°C

[Още]
Вятър variable 0kt
Видимост 8000m
Времето Mist
Облаци Vertical Visibility of 0ft.
Налягане 1020
Промяна -
Сурови KCUB 050153Z AUTO 00000KT 5SM BR CLR 13/11 A3013 RMK AO2 SLP202 T01280106

MVFR

13.9°C / 10.6°C

[Още]
Вятър variable 0kt
Видимост 6400m
Времето Haze
Облаци Vertical Visibility of 0ft.
Налягане 1019
Промяна -
Сурови KCUB 050053Z AUTO 00000KT 4SM HZ CLR 14/11 A3011 RMK AO2 SLP197 T01390106

MVFR

14.4°C / 11.1°C

[Още]
Вятър variable 0kt
Видимост 6400m
Времето Haze
Облаци Vertical Visibility of 0ft.
Налягане 1019
Промяна -
Сурови KCUB 042353Z AUTO 00000KT 4SM HZ CLR 14/11 A3009 RMK AO2 SLP190 T01440111 10222 20144 51012

VFR

16.1°C / 11.1°C

[Още]
Вятър variable 0kt
Видимост >10km
Времето -
Облаци Clear
Налягане 1018
Промяна -
Сурови KCUB 042253Z AUTO 00000KT 8SM CLR 16/11 A3008 RMK AO2 SLP185 T01610111

VFR

21.1°C / 11.1°C

[Още]
Вятър variable 0kt
Видимост >10km
Времето -
Облаци Clear
Налягане 1018
Промяна -
Сурови KCUB 042153Z AUTO 00000KT 9SM CLR 21/11 A3007 RMK AO2 SLP181 T02110111

VFR

21.7°C / 11.1°C

[Още]
Вятър variable 0kt
Видимост >10km
Времето -
Облаци Clear
Налягане 1017
Промяна -
Сурови KCUB 042053Z AUTO 00000KT 10SM CLR 22/11 A3006 RMK AO2 SLP176 T02170111 55005

VFR

21.7°C / 10.6°C

[Още]
Вятър 190º 3kt
Видимост >10km
Времето -
Облаци Clear
Налягане 1017
Промяна -
Сурови KCUB 041953Z AUTO 19003KT 10SM CLR 22/11 A3005 RMK AO2 SLP175 T02170106

VFR

21.7°C / 10°C

[Още]
Вятър 140º 3kt
Видимост >10km
Времето -
Облаци Clear
Налягане 1017
Промяна -
Сурови KCUB 041853Z AUTO 14003KT 10SM CLR 22/10 A3006 RMK AO2 SLP176 T02170100

VFR

21.1°C / 10°C

[Още]
Вятър variable 0kt
Видимост >10km
Времето -
Облаци Clear
Налягане 1018
Промяна -
Сурови KCUB 041753Z AUTO 00000KT 9SM CLR 21/10 A3007 RMK AO2 SLP182 T02110100 10211 20072 58011

VFR

17.8°C / 9.4°C

[Още]
Вятър 250º 3kt
Видимост >10km
Времето -
Облаци Clear
Налягане 1018
Промяна -
Сурови KCUB 041653Z AUTO 25003KT 8SM CLR 18/09 A3009 RMK AO2 SLP189 T01780094

VFR

16.7°C / 9.4°C

[Още]
Вятър variable 0kt
Видимост >10km
Времето -
Облаци Clear
Налягане 1019
Промяна -
Сурови KCUB 041553Z AUTO 00000KT 9SM CLR 17/09 A3010 RMK AO2 SLP193 T01670094

VFR

14.4°C / 8.3°C

[Още]
Вятър 240º 3kt
Видимост >10km
Времето -
Облаци Clear
Налягане 1019
Промяна -
Сурови KCUB 041453Z AUTO 24003KT 9SM CLR 14/08 A3010 RMK AO2 SLP193 T01440083 52016

VFR

12.8°C / 8.3°C

[Още]
Вятър variable 0kt
Видимост >10km
Времето -
Облаци Clear
Налягане 1018
Промяна -
Сурови KCUB 041353Z AUTO 00000KT 9SM CLR 13/08 A3009 RMK AO2 SLP187 T01280083

VFR

8.3°C / 6.7°C

[Още]
Вятър variable 0kt
Видимост >10km
Времето -
Облаци Clear
Налягане 1018
Промяна -
Сурови KCUB 041253Z AUTO 00000KT 7SM CLR 08/07 A3007 RMK AO2 SLP184 T00830067

VFR

7.2°C / 5.6°C

[Още]
Вятър variable 0kt
Видимост >10km
Времето -
Облаци Clear
Налягане 1017
Промяна -
Сурови KCUB 041153Z AUTO 00000KT 9SM CLR 07/06 A3006 RMK AO2 SLP177 T00720056 10111 20072 53005

VFR

7.8°C / 5.6°C

[Още]
Вятър variable 0kt
Видимост >10km
Времето -
Облаци Clear
Налягане 1017
Промяна -
Сурови KCUB 041053Z AUTO 00000KT 9SM CLR 08/06 A3005 RMK AO2 SLP173 T00780056

VFR

8.3°C / 6.1°C

[Още]
Вятър variable 0kt
Видимост >10km
Времето -
Облаци Clear
Налягане 1017
Промяна -
Сурови KCUB 040953Z AUTO 00000KT 10SM CLR 08/06 A3004 RMK AO2 SLP170 T00830061

VFR

8.3°C / 6.1°C

[Още]
Вятър variable 0kt
Видимост >10km
Времето -
Облаци Clear
Налягане 1017
Промяна -
Сурови KCUB 040853Z AUTO 00000KT 10SM CLR 08/06 A3004 RMK AO2 SLP172 T00830061 53001

VFR

9.4°C / 6.7°C

[Още]
Вятър variable 0kt
Видимост >10km
Времето -
Облаци Clear
Налягане 1017
Промяна -
Сурови KCUB 040753Z AUTO 00000KT 10SM CLR 09/07 A3004 RMK AO2 SLP172 T00940067

VFR

10.6°C / 7.2°C

[Още]
Вятър variable 0kt
Видимост >10km
Времето -
Облаци Clear
Налягане 1017
Промяна -
Сурови KCUB 040653Z AUTO 00000KT 10SM CLR 11/07 A3004 RMK AO2 SLP170 T01060072

VFR

11.1°C / 7.8°C

[Още]
Вятър variable 0kt
Видимост >10km
Времето -
Облаци Clear
Налягане 1017
Промяна -
Сурови KCUB 040553Z AUTO 00000KT 10SM CLR 11/08 A3004 RMK AO2 SLP170 T01110078 10161 20111 58004

VFR

11.7°C / 7.8°C

[Още]
Вятър variable 0kt
Видимост >10km
Времето -
Облаци Clear
Налягане 1017
Промяна -
Сурови KCUB 040453Z AUTO 00000KT 10SM CLR 12/08 A3005 RMK AO2 SLP174 T01170078 402720067

TAF за Южна Каролина (KCUB)

From till


From till Wind variable 0kt. Visibility 10km or more. Scattered Clouds 20000ft.
Temporarly from till Visibility 6400m. Mist .
From till Wind variable 0kt. Visibility 4800m. Mist . Scattered Clouds 2000ft.
From till Wind variable 3kt. Visibility 10km or more. Broken Clouds 3500ft.

Сурови: KCUB 050304Z 0503/0524 00000KT P6SM SCT200 TEMPO 0503/0506 4SM BR FM050900 00000KT 3SM BR SCT020 FM051300 VRB03KT P6SM BKN035

Радар и валежи в момента за Южна Каролина

Ситен дъжд
Лек
Умерен
Тежък
Много тежък
Аве

Маркерът за локация обозначава Южна Каролина. Анимацията показва Радара за валежи за последния час, както и прогноза за 1h. Дъждът или лекият сняг може да са невидими за радара. Интензивността на валежите е обозначена с цветни кодове, вариращи от светлосиньо до оранжево.

Актуални сателитни изображения за Южна Каролина, Съединени щати

Маркерът за локация е поставен върху Южна Каролина. [Още]

Сателитното изображение в реално време съчетава видимата светлина през деня с инфрачервеното лъчение през нощта. През нощта изображението не е тъмно, тъй като инфрачервеното лъчение може да открива температурни разлики. За съжаление ниските облаци и мъглата са трудни за разграничаване от температурите на земята и затова могат да бъдат почти невидими през нощта. Сателитните изображения на Meteosat за Европа се актуализират в реално време на всеки 5 минути. Изображенията GOES-16/GOES-17 (Северна и Южна Америка) и Химавари (Азия) се актуализират на всеки 10 минути.